QPF
0.01 0.01 0.00 0.00 0.00 0.00 0.01 0.01 0.02 0.01 0.02 0.03 0.04 0.05 0.05 0.06 0.07 0.07 0.06 0.08 0.09 0.09 0.08 0.07 0.06 0.06 0.08 0.09 0.10 0.13 0.16 0.20 0.22 0.18 0.14 0.11 0.09 0.07
0.00 0.00 0.00 0.00 0.00 0.00 0.00 0.01 0.01 0.01 0.01 0.02 0.03 0.04 0.05 0.05 0.05 0.06 0.06 0.06 0.06 0.07 0.07 0.07 0.05 0.05 0.05 0.06 0.06 0.06 0.06 0.08 0.12 0.16 0.15 0.14 0.12 0.10
0.01 0.01 0.01 0.01 0.00 0.00 0.00 0.01 0.01 0.01 0.01 0.01 0.02 0.05 0.06 0.07 0.08 0.07 0.07 0.07 0.06 0.07 0.07 0.06 0.06 0.05 0.05 0.06 0.07 0.06 0.05 0.06 0.06 0.08 0.11 0.12 0.12 0.12
0.01 0.01 0.01 0.01 0.00 0.00 0.01 0.01 0.01 0.01 0.01 0.01 0.01 0.02 0.04 0.06 0.07 0.07 0.06 0.05 0.05 0.06 0.06 0.06 0.06 0.05 0.05 0.07 0.07 0.07 0.06 0.06 0.06 0.06 0.07 0.09 0.12 0.13
0.01 0.01 0.01 0.01 0.00 0.00 0.01 0.01 0.01 0.02 0.02 0.01 0.01 0.01 0.02 0.05 0.06 0.06 0.06 0.06 0.05 0.05 0.04 0.03 0.04 0.04 0.04 0.05 0.07 0.08 0.06 0.06 0.06 0.06 0.06 0.06 0.08 0.10
0.01 0.03 0.03 0.02 0.01 0.00 0.01 0.01 0.01 0.02 0.02 0.02 0.02 0.01 0.01 0.03 0.04 0.06 0.06 0.07 0.07 0.07 0.06 0.04 0.03 0.03 0.03 0.03 0.04 0.06 0.06 0.06 0.06 0.06 0.06 0.06 0.05 0.06
0.01 0.02 0.02 0.02 0.02 0.01 0.01 0.01 0.01 0.01 0.01 0.02 0.02 0.02 0.02 0.02 0.03 0.04 0.06 0.07 0.07 0.07 0.08 0.05 0.04 0.03 0.02 0.02 0.02 0.03 0.03 0.05 0.05 0.05 0.06 0.06 0.07 0.07
0.02 0.01 0.01 0.03 0.02 0.01 0.01 0.01 0.01 0.01 0.02 0.02 0.02 0.02 0.02 0.02 0.02 0.03 0.05 0.05 0.05 0.07 0.08 0.07 0.06 0.04 0.03 0.02 0.02 0.02 0.03 0.03 0.04 0.05 0.06 0.06 0.06 0.06
0.01 0.01 0.01 0.01 0.02 0.01 0.01 0.01 0.01 0.01 0.02 0.02 0.02 0.01 0.02 0.02 0.02 0.02 0.03 0.03 0.03 0.05 0.08 0.08 0.07 0.05 0.05 0.04 0.03 0.03 0.03 0.03 0.03 0.04 0.05 0.06 0.05 0.05
0.00 0.00 0.00 0.00 0.01 0.01 0.01 0.01 0.01 0.01 0.01 0.01 0.01 0.01 0.01 0.02 0.02 0.02 0.02 0.02 0.03 0.03 0.05 0.06 0.06 0.06 0.05 0.04 0.03 0.03 0.02 0.02 0.02 0.03 0.03 0.04 0.04 0.03
0.00 0.00 0.00 0.01 0.01 0.01 0.01 0.01 0.00 0.01 0.01 0.02 0.02 0.01 0.01 0.01 0.02 0.02 0.02 0.03 0.03 0.02 0.04 0.05 0.03 0.03 0.05 0.05 0.05 0.05 0.04 0.04 0.03 0.02 0.02 0.02 0.03 0.04
0.00 0.00 0.01 0.01 0.01 0.01 0.01 0.00 0.00 0.00 0.00 0.01 0.02 0.02 0.01 0.01 0.01 0.01 0.01 0.03 0.03 0.03 0.02 0.04 0.05 0.05 0.03 0.02 0.03 0.04 0.05 0.05 0.04 0.04 0.04 0.03 0.04 0.05
0.00 0.00 0.01 0.01 0.01 0.01 0.01 0.00 0.00 0.00 0.00 0.01 0.01 0.01 0.01 0.00 0.00 0.01 0.01 0.02 0.04 0.04 0.04 0.04 0.05 0.07 0.06 0.03 0.02 0.02 0.04 0.05 0.05 0.04 0.04 0.04 0.05 0.06
0.00 0.00 0.00 0.01 0.01 0.01 0.01 0.00 0.00 0.00 0.00 0.01 0.01 0.01 0.00 0.00 0.00 0.01 0.01 0.03 0.04 0.06 0.07 0.06 0.05 0.07 0.09 0.08 0.05 0.03 0.03 0.05 0.05 0.04 0.03 0.04 0.05 0.05
0.00 0.00 0.00 0.00 0.00 0.00 0.00 0.00 0.00 0.00 0.00 0.00 0.00 0.00 0.00 0.00 0.00 0.00 0.01 0.03 0.04 0.05 0.07 0.08 0.08 0.07 0.08 0.11 0.09 0.06 0.05 0.04 0.05 0.05 0.04 0.04 0.03 0.03
0.00 0.00 0.00 0.00 0.00 0.00 0.00 0.00 0.00 0.00 0.00 0.00 0.00 0.00 0.00 0.00 0.00 0.00 0.00 0.01 0.01 0.02 0.03 0.04 0.06 0.08 0.09 0.09 0.08 0.07 0.05 0.04 0.04 0.05 0.06 0.05 0.04 0.03
0.00 0.00 0.00 0.00 0.00 0.00 0.00 0.00 0.00 0.00 0.00 0.00 0.00 0.00 0.00 0.00 0.00 0.00 0.00 0.00 0.00 0.01 0.01 0.01 0.03 0.05 0.05 0.05 0.05 0.05 0.05 0.04 0.04 0.03 0.04 0.04 0.04 0.03
0.00 0.00 0.00 0.00 0.00 0.00 0.00 0.00 0.00 0.00 0.00 0.00 0.00 0.00 0.00 0.00 0.00 0.00 0.00 0.00 0.00 0.00 0.00 0.01 0.01 0.02 0.03 0.03 0.03 0.03 0.02 0.02 0.02 0.02 0.03 0.03 0.03 0.03
0.00 0.00 0.00 0.00 0.00 0.00 0.00 0.00 0.00 0.00 0.00 0.00 0.00 0.00 0.00 0.00 0.00 0.00 0.00 0.00 0.00 0.00 0.00 0.00 0.01 0.01 0.02 0.02 0.03 0.03 0.02 0.02 0.02 0.02 0.02 0.02 0.01 0.01
0.00 0.00 0.00 0.00 0.00 0.00 0.00 0.00 0.00 0.00 0.00 0.00 0.00 0.00 0.00 0.00 0.00 0.00 0.00 0.00 0.00 0.00 0.00 0.00 0.00 0.00 0.01 0.01 0.01 0.01 0.02 0.02 0.02 0.02 0.02 0.02 0.02 0.02
0.00 0.00 0.00 0.00 0.00 0.00 0.00 0.00 0.00 0.00 0.00 0.00 0.00 0.00 0.00 0.00 0.00 0.00 0.00 0.00 0.00 0.00 0.00 0.00 0.00 0.00 0.00 0.00 0.00 0.00 0.01 0.01 0.01 0.01 0.01 0.01 0.01 0.01
0.00 0.00 0.00 0.00 0.00 0.00 0.00 0.00 0.00 0.00 0.00 0.00 0.00 0.00 0.00 0.00 0.00 0.00 0.00 0.00 0.00 0.00 0.00 0.00 0.00 0.00 0.00 0.00 0.00 0.00 0.00 0.00 0.00 0.00 0.01 0.01 0.01 0.01
0.00 0.00 0.00 0.00 0.00 0.00 0.00 0.00 0.00 0.00 0.00 0.00 0.00 0.00 0.00 0.00 0.00 0.00 0.00 0.00 0.00 0.00 0.00 0.00 0.00 0.00 0.00 0.00 0.00 0.00 0.00 0.00 0.00 0.00 0.00 0.01 0.01 0.01
MSLP
1011.50 1011.47 1011.48 1011.53 1011.62 1011.72 1011.83 1011.94 1012.04 1012.12 1012.18 1012.21 1012.21 1012.19 1012.15 1012.11 1012.07 1012.05 1012.06 1012.12 1012.24 1012.40 1012.60 1012.82 1013.05 1013.26 1013.45 1013.60 1013.72 1013.82 1013.91 1014.02 1014.14 1014.29 1014.46 1014.65 1014.86 1015.06
1011.85 1011.78 1011.74 1011.73 1011.76 1011.83 1011.92 1012.03 1012.16 1012.28 1012.39 1012.46 1012.51 1012.51 1012.48 1012.41 1012.34 1012.28 1012.24 1012.25 1012.32 1012.44 1012.61 1012.81 1013.02 1013.21 1013.38 1013.50 1013.58 1013.64 1013.68 1013.73 1013.80 1013.90 1014.03 1014.18 1014.35 1014.53
1012.16 1012.07 1012.00 1011.96 1011.96 1012.00 1012.09 1012.22 1012.37 1012.54 1012.70 1012.83 1012.92 1012.95 1012.92 1012.85 1012.75 1012.64 1012.55 1012.50 1012.51 1012.59 1012.71 1012.86 1013.03 1013.18 1013.31 1013.39 1013.43 1013.44 1013.43 1013.43 1013.44 1013.49 1013.57 1013.68 1013.81 1013.94
1012.38 1012.31 1012.24 1012.19 1012.18 1012.22 1012.32 1012.47 1012.66 1012.87 1013.08 1013.26 1013.38 1013.44 1013.43 1013.35 1013.23 1013.08 1012.94 1012.84 1012.78 1012.78 1012.84 1012.93 1013.04 1013.14 1013.21 1013.24 1013.23 1013.19 1013.13 1013.08 1013.05 1013.05 1013.08 1013.15 1013.23 1013.33
1012.49 1012.45 1012.40 1012.37 1012.37 1012.43 1012.55 1012.72 1012.94 1013.18 1013.43 1013.65 1013.81 1013.90 1013.90 1013.83 1013.69 1013.52 1013.34 1013.18 1013.06 1013.00 1012.98 1013.00 1013.03 1013.06 1013.07 1013.04 1012.97 1012.88 1012.78 1012.69 1012.61 1012.57 1012.57 1012.60 1012.66 1012.72
1012.46 1012.47 1012.47 1012.48 1012.51 1012.58 1012.71 1012.90 1013.13 1013.40 1013.67 1013.91 1014.10 1014.21 1014.24 1014.18 1014.05 1013.87 1013.67 1013.48 1013.31 1013.18 1013.09 1013.04 1013.00 1012.95 1012.88 1012.79 1012.67 1012.53 1012.39 1012.26 1012.15 1012.09 1012.06 1012.06 1012.09 1012.13
1012.31 1012.37 1012.42 1012.47 1012.53 1012.62 1012.76 1012.95 1013.18 1013.44 1013.70 1013.95 1014.16 1014.29 1014.35 1014.32 1014.22 1014.06 1013.87 1013.67 1013.48 1013.31 1013.17 1013.04 1012.93 1012.81 1012.67 1012.51 1012.33 1012.15 1011.97 1011.81 1011.68 1011.59 1011.54 1011.53 1011.54 1011.57
1012.05 1012.16 1012.26 1012.34 1012.42 1012.52 1012.65 1012.82 1013.03 1013.26 1013.51 1013.75 1013.96 1014.12 1014.21 1014.23 1014.18 1014.07 1013.92 1013.75 1013.56 1013.37 1013.20 1013.02 1012.84 1012.65 1012.45 1012.23 1012.00 1011.77 1011.55 1011.36 1011.20 1011.09 1011.03 1011.00 1011.00 1011.01
1011.72 1011.86 1011.99 1012.09 1012.19 1012.29 1012.40 1012.53 1012.70 1012.90 1013.11 1013.34 1013.55 1013.73 1013.87 1013.95 1013.97 1013.93 1013.85 1013.72 1013.57 1013.39 1013.20 1012.99 1012.76 1012.51 1012.25 1011.97 1011.68 1011.41 1011.15 1010.93 1010.75 1010.61 1010.53 1010.48 1010.45 1010.44
1011.35 1011.51 1011.65 1011.77 1011.87 1011.95 1012.04 1012.14 1012.26 1012.41 1012.59 1012.79 1013.00 1013.21 1013.39 1013.54 1013.64 1013.69 1013.69 1013.64 1013.53 1013.38 1013.19 1012.96 1012.70 1012.40 1012.08 1011.75 1011.41 1011.09 1010.79 1010.53 1010.32 1010.15 1010.03 1009.95 1009.89 1009.85
1010.97 1011.14 1011.29 1011.42 1011.52 1011.59 1011.66 1011.73 1011.81 1011.92 1012.07 1012.25 1012.46 1012.69 1012.91 1013.13 1013.31 1013.44 1013.52 1013.54 1013.49 1013.37 1013.19 1012.95 1012.66 1012.33 1011.97 1011.59 1011.21 1010.84 1010.50 1010.20 1009.94 1009.73 1009.56 1009.43 1009.33 1009.23
1010.62 1010.79 1010.95 1011.09 1011.20 1011.28 1011.34 1011.39 1011.46 1011.54 1011.66 1011.83 1012.03 1012.27 1012.53 1012.79 1013.03 1013.23 1013.38 1013.46 1013.45 1013.37 1013.20 1012.96 1012.65 1012.29 1011.90 1011.48 1011.07 1010.66 1010.28 1009.94 1009.64 1009.38 1009.15 1008.96 1008.79 1008.64
1010.30 1010.49 1010.67 1010.84 1010.97 1011.08 1011.15 1011.21 1011.27 1011.35 1011.46 1011.61 1011.81 1012.05 1012.32 1012.60 1012.87 1013.11 1013.29 1013.40 1013.43 1013.36 1013.21 1012.97 1012.65 1012.28 1011.87 1011.44 1011.00 1010.57 1010.16 1009.78 1009.44 1009.13 1008.84 1008.58 1008.34 1008.11
1010.03 1010.24 1010.46 1010.67 1010.85 1011.00 1011.12 1011.21 1011.28 1011.37 1011.47 1011.61 1011.79 1012.02 1012.28 1012.55 1012.82 1013.06 1013.25 1013.37 1013.40 1013.35 1013.20 1012.96 1012.65 1012.29 1011.88 1011.44 1011.00 1010.57 1010.15 1009.74 1009.37 1009.01 1008.66 1008.33 1008.01 1007.70
1009.80 1010.06 1010.33 1010.60 1010.84 1011.05 1011.22 1011.35 1011.46 1011.56 1011.67 1011.79 1011.95 1012.14 1012.37 1012.60 1012.84 1013.05 1013.22 1013.33 1013.36 1013.30 1013.16 1012.94 1012.65 1012.30 1011.92 1011.50 1011.08 1010.66 1010.24 1009.83 1009.43 1009.03 1008.64 1008.24 1007.85 1007.46
1009.60 1009.92 1010.25 1010.58 1010.89 1011.16 1011.39 1011.58 1011.73 1011.85 1011.96 1012.07 1012.20 1012.35 1012.52 1012.70 1012.89 1013.05 1013.19 1013.27 1013.28 1013.23 1013.10 1012.90 1012.64 1012.33 1011.99 1011.62 1011.23 1010.84 1010.44 1010.03 1009.62 1009.19 1008.75 1008.30 1007.84 1007.37
1009.43 1009.80 1010.19 1010.58 1010.95 1011.28 1011.57 1011.80 1011.98 1012.12 1012.24 1012.34 1012.43 1012.54 1012.66 1012.78 1012.91 1013.03 1013.12 1013.17 1013.18 1013.13 1013.02 1012.85 1012.64 1012.38 1012.09 1011.77 1011.43 1011.07 1010.69 1010.30 1009.88 1009.43 1008.96 1008.46 1007.94 1007.40
1009.27 1009.68 1010.11 1010.54 1010.95 1011.33 1011.65 1011.92 1012.13 1012.29 1012.41 1012.50 1012.58 1012.65 1012.73 1012.81 1012.88 1012.96 1013.02 1013.06 1013.06 1013.03 1012.95 1012.82 1012.66 1012.46 1012.22 1011.95 1011.65 1011.32 1010.96 1010.56 1010.13 1009.67 1009.16 1008.62 1008.05 1007.46
1009.09 1009.53 1009.98 1010.42 1010.85 1011.25 1011.60 1011.89 1012.13 1012.30 1012.43 1012.53 1012.60 1012.65 1012.71 1012.76 1012.81 1012.87 1012.92 1012.95 1012.97 1012.95 1012.90 1012.82 1012.70 1012.54 1012.34 1012.10 1011.82 1011.51 1011.15 1010.75 1010.30 1009.81 1009.28 1008.70 1008.09 1007.46
1008.87 1009.31 1009.76 1010.20 1010.63 1011.02 1011.38 1011.68 1011.93 1012.13 1012.29 1012.40 1012.49 1012.55 1012.61 1012.67 1012.72 1012.78 1012.83 1012.88 1012.90 1012.91 1012.89 1012.83 1012.74 1012.60 1012.41 1012.18 1011.90 1011.58 1011.20 1010.78 1010.30 1009.78 1009.22 1008.62 1007.98 1007.33
1008.58 1009.02 1009.45 1009.87 1010.27 1010.65 1011.00 1011.32 1011.59 1011.82 1012.01 1012.16 1012.28 1012.39 1012.47 1012.56 1012.63 1012.71 1012.78 1012.84 1012.88 1012.90 1012.89 1012.84 1012.74 1012.60 1012.40 1012.15 1011.85 1011.48 1011.07 1010.61 1010.10 1009.55 1008.96 1008.34 1007.70 1007.04
1008.22 1008.64 1009.04 1009.43 1009.81 1010.18 1010.52 1010.85 1011.15 1011.41 1011.65 1011.86 1012.04 1012.19 1012.33 1012.45 1012.57 1012.66 1012.75 1012.82 1012.87 1012.89 1012.86 1012.80 1012.68 1012.50 1012.27 1011.97 1011.62 1011.21 1010.75 1010.24 1009.70 1009.12 1008.52 1007.90 1007.27 1006.62
1007.77 1008.18 1008.57 1008.93 1009.29 1009.64 1009.99 1010.33 1010.66 1010.98 1011.27 1011.54 1011.79 1012.00 1012.20 1012.36 1012.51 1012.62 1012.72 1012.78 1012.82 1012.81 1012.76 1012.65 1012.49 1012.26 1011.97 1011.62 1011.21 1010.75 1010.25 1009.71 1009.14 1008.55 1007.96 1007.35 1006.75 1006.14
Thickness
5669 5669 5669 5670 5672 5673 5674 5675 5673 5672 5676 5685 5692 5700 5704 5708 5711 5713 5716 5718 5720 5722 5723 5724 5725 5726 5727 5728 5729 5729 5729 5729 5729 5730 5729 5729 5729 5729
5668 5668 5668 5669 5670 5671 5672 5674 5674 5674 5673 5680 5686 5693 5698 5703 5705 5708 5710 5713 5715 5717 5718 5719 5721 5721 5722 5723 5724 5725 5726 5726 5726 5727 5727 5727 5727 5727
5668 5667 5667 5667 5667 5668 5669 5671 5672 5672 5671 5676 5682 5687 5691 5694 5698 5701 5704 5707 5710 5712 5713 5714 5716 5717 5718 5719 5720 5721 5722 5722 5723 5723 5724 5724 5724 5724
5667 5666 5666 5666 5665 5665 5665 5666 5667 5669 5669 5671 5675 5680 5684 5688 5691 5694 5698 5701 5704 5706 5708 5709 5710 5711 5712 5713 5715 5716 5717 5718 5718 5719 5720 5720 5721 5721
5667 5665 5665 5664 5663 5662 5662 5662 5664 5666 5667 5667 5669 5673 5677 5681 5684 5688 5691 5694 5697 5700 5701 5702 5703 5705 5706 5707 5709 5710 5711 5713 5713 5714 5715 5715 5716 5716
5666 5665 5664 5663 5661 5660 5660 5659 5660 5660 5661 5662 5664 5667 5670 5674 5676 5678 5681 5685 5688 5692 5694 5695 5696 5698 5699 5701 5703 5704 5705 5706 5707 5708 5709 5710 5711 5711
5665 5664 5663 5663 5662 5660 5659 5657 5656 5656 5656 5657 5658 5660 5663 5665 5668 5671 5672 5676 5680 5683 5685 5687 5689 5690 5692 5694 5696 5698 5699 5700 5701 5702 5702 5703 5704 5705
5663 5662 5661 5661 5660 5660 5659 5657 5656 5653 5652 5652 5653 5654 5656 5659 5662 5664 5665 5666 5668 5674 5675 5677 5681 5681 5684 5687 5689 5691 5692 5694 5694 5695 5696 5696 5697 5698
5661 5659 5659 5659 5657 5656 5655 5654 5653 5653 5652 5650 5649 5650 5652 5654 5656 5658 5658 5659 5661 5666 5667 5668 5672 5673 5677 5680 5682 5684 5685 5686 5687 5687 5688 5689 5690 5691
5659 5657 5655 5654 5654 5652 5650 5648 5647 5647 5648 5648 5648 5648 5650 5651 5652 5653 5654 5655 5657 5659 5660 5660 5663 5665 5670 5672 5674 5676 5677 5678 5679 5680 5680 5682 5683 5683
5656 5655 5653 5652 5651 5650 5647 5644 5643 5643 5644 5645 5645 5646 5647 5648 5648 5648 5648 5648 5648 5651 5653 5652 5655 5657 5661 5664 5667 5668 5669 5670 5671 5672 5673 5674 5675 5676
5652 5651 5651 5649 5648 5646 5643 5640 5638 5637 5638 5639 5639 5640 5640 5641 5642 5642 5642 5641 5640 5641 5644 5644 5645 5647 5649 5654 5657 5658 5660 5661 5662 5663 5664 5665 5666 5667
5648 5646 5645 5645 5644 5642 5640 5637 5636 5634 5633 5632 5632 5631 5632 5633 5634 5635 5635 5634 5633 5634 5636 5637 5637 5637 5638 5642 5646 5648 5649 5650 5652 5653 5655 5656 5657 5658
5644 5642 5641 5640 5639 5637 5635 5633 5632 5630 5628 5626 5624 5623 5623 5624 5625 5626 5627 5627 5627 5627 5628 5629 5628 5628 5629 5631 5634 5637 5639 5640 5641 5643 5645 5646 5647 5649
5640 5639 5637 5636 5634 5631 5630 5628 5625 5623 5620 5618 5616 5615 5615 5616 5617 5618 5619 5619 5620 5620 5620 5620 5620 5621 5621 5621 5623 5625 5627 5629 5630 5632 5633 5634 5636 5637
5635 5633 5632 5629 5627 5625 5623 5620 5618 5616 5613 5611 5609 5608 5608 5608 5608 5608 5608 5608 5608 5608 5610 5611 5611 5612 5612 5613 5613 5613 5614 5615 5618 5619 5620 5622 5624 5625
5628 5625 5623 5620 5618 5616 5614 5612 5610 5608 5605 5603 5602 5600 5600 5599 5599 5599 5598 5597 5596 5595 5596 5599 5601 5602 5602 5602 5602 5602 5603 5604 5605 5606 5607 5610 5612 5613
5623 5618 5615 5613 5611 5608 5606 5604 5602 5600 5598 5596 5594 5592 5591 5590 5589 5588 5588 5587 5585 5585 5585 5586 5587 5589 5590 5591 5591 5589 5589 5589 5591 5592 5593 5595 5600 5602
5615 5612 5609 5606 5604 5602 5599 5597 5594 5592 5590 5588 5586 5584 5583 5581 5580 5579 5577 5576 5576 5575 5574 5574 5573 5572 5572 5574 5577 5578 5576 5577 5577 5578 5579 5580 5584 5589
5609 5606 5603 5600 5598 5595 5592 5590 5587 5585 5582 5580 5578 5576 5574 5572 5571 5569 5567 5566 5565 5564 5563 5562 5561 5560 5558 5560 5563 5565 5563 5562 5562 5563 5565 5567 5571 5575
5601 5599 5597 5594 5591 5588 5585 5583 5580 5577 5575 5572 5569 5567 5565 5563 5561 5559 5558 5557 5555 5554 5552 5551 5551 5551 5550 5550 5550 5553 5551 5549 5548 5548 5550 5552 5556 5561
5595 5592 5589 5587 5584 5581 5578 5575 5572 5569 5566 5563 5560 5557 5555 5553 5551 5550 5548 5546 5544 5543 5542 5542 5541 5540 5539 5538 5539 5541 5541 5540 5538 5537 5536 5537 5538 5543
5588 5585 5582 5579 5576 5573 5570 5567 5563 5560 5557 5554 5551 5548 5546 5544 5541 5539 5538 5536 5534 5533 5532 5531 5531 5529 5528 5527 5527 5528 5529 5529 5528 5527 5527 5526 5526 5529